www.pogodaiklimat.ru

Погода и климат >> Архив погоды >> Россия >> Краснодарский край >> Горный


ПОГОДА в Горном

  • Прогноз погоды в Горном
  • Монитор погоды в Горном
  • Климат города

АРХИВ ПОГОДЫ в Горном

Время (UTC), дата Ветер
(напр.,м/с)
 
Видим.   Явления Облачность Т
(С)
Тd
(С)
f
(%)
Тe
(С)
Тes
(С)
Комфортность P
(гПа)
Po
(гПа)
Тmin
(С)
Tmax
(С)
R
(мм)
R24
(мм)
S
(см)
03 11.10 штиль 0 500 м туман 5/0
[Ac lent]
+9.1 +9.1 100 +8 +8 1021.8 982.9 +9.1
06 11.10 СВ 1 500 м туман 10/0
[Ac cast]
+10.7 +10.7 100 +10 +11 1022.0 983.3 +9.0
09 11.10 С 2 50 км {туман} ясно +16.7 +11.6 72 +17 +25 1021.2 983.3
12 11.10 СВ 6
{10}
50 км {туман} ясно +19.3 +11.4 60 +20 +22 1019.8 982.3
15 11.10 СВ 3 50 км ясно +17.0 +11.1 68 +17 +17 1020.1 982.2 +19.7
18 11.10 СВ 5 50 км ясно +15.8 982.7
21 11.10 СВ 2 50 км ясно +11.3 982.7
00 12.10 СВ 2 50 км ясно +8.4 +7.2 92 +6 +6 1022.3 983.3
03 12.10 СВ 2 20 км местами туман поземный ясно +7.3 +7.1 99 +5 +5 1023.3 984.0 +7.3
06 12.10 В 2 50 км ясно +13.4 +9.8 79 +13 +15 1023.2 984.9 +6.9
09 12.10 СВ 6-10
{11}
50 км ясно +17.5 +9.1 58 +17 +20 1023.7 985.8
12 12.10 СВ 6-10
{12}
50 км ясно +20.7 +7.9 44 +22 +23 комфорт 1022.3 984.9
15 12.10 СВ 5
{13}
50 км ясно +18.0 +5.9 45 +18 +18 1022.9 985.0 +20.9
18 12.10 СВ 4
{11}
50 км ясно +14.1 +5.5 56 +13 +13 1023.9 985.5
21 12.10 С 2 50 км ясно +10.3 +3.2 61 +9 +9 1025.2 986.2
00 13.10 С 3 50 км ясно +8.1 +1.3 62 +6 +6 1025.7 986.5
03 13.10 СВ 3 50 км ясно +5.6 +0.5 70 +3 +3 1026.5 986.8 +5.6
06 13.10 С 3 50 км ясно +9.0 987.4 +5.4
09 13.10 С 4 50 км ясно +14.9 +5.3 53 +14 +19 1025.2 986.9
12 13.10 СВ 5-10
{12}
50 км ясно +17.5 +4.6 42 +17 +19 1024.1 986.2
15 13.10 СВ 5
{10}
50 км ясно +16.0 +4.4 46 +15 +15 1023.4 985.3 +18.2
18 13.10 С 5 50 км ясно +13.0 +3.8 54 +11 +11 1023.8 985.3
21 13.10 СВ 3 50 км ясно +9.1 985.5
00 14.10 СВ 3 50 км ясно +6.4 +1.2 69 +4 +4 1024.7 985.2
03 14.10 СВ 3 50 км ясно +4.7 +1.7 81 +1 +1 1025.6 985.8 +4.7
06 14.10 В 2 50 км ясно +9.1 +3.9 70 +8 +10 1025.0 985.9 +4.1
09 14.10 СВ 6 50 км 3/0
[Ac cast]
+17.4 +5.0 44 +17 +19 1023.2 985.2
12 14.10 СВ 4-10
{12}
50 км 8/0
[Ci sp]
+18.8 +4.6 39 +19 +21 1021.3 983.6
15 14.10 СВ 5
{11}
50 км 5/0
[Ci fib]
+16.7 +1.2 35 +16 +16 1021.7 983.9 +19.5
18 14.10 С 4 50 км ясно +13.5 +0.6 41 +12 +12 1022.6 984.1
21 14.10 СВ 1 50 км ясно +10.7 984.1
00 15.10 С 2 50 км ясно +4.4 +4.2 99 +1 +1 1023.9 984.2
03 15.10 СВ 2 50 км ясно +2.8 +2.8 100 -1 -1 1024.7 984.8 +2.8
06 15.10 В 1 50 км 3/0
[Ci]
+8.5 +4.2 74 +8 +10 1024.3 985.1
09 15.10 СВ 3 50 км 8/0
[Ci]
+19.9 +0.6 27 +20 +25 1021.8 984.3
12 15.10 СВ 4
{13}
50 км 10/0
[Cs]
+21.3 +3.2 30 +21 +23 комфорт 1021.1 983.7
15 15.10 СВ 3
{10}
50 км 4/0
[Ci]
+18.6 +2.1 33 +19 +19 1021.6 983.8 +21.8
18 15.10 С 4 50 км ясно +16.8 +2.3 38 +16 +16 1021.6 983.7
21 15.10 штиль 0 50 км ясно +11.0 +3.9 62 +11 +11 1022.5 983.8
00 16.10 С 1 50 км ясно +6.8 +5.0 88 +6 +6 1023.7 984.4
03 16.10 С 2 50 км ясно +5.6 +5.6 100 +3 +3 1024.0 984.6 +5.4
06 16.10 СВ 2 50 км ясно +11.2 +6.1 71 +10 +12 1023.8 985.0 +4.9
09 16.10 С 3 50 км ясно +19.7 +7.5 45 +21 +27 комфорт 1021.9 984.4
12 16.10 СВ 4 50 км ясно +21.5 +5.7 36 +22 +25 комфорт 1021.0 983.7
15 16.10 СВ 4 50 км 4/0
[Ci]
+19.5 +6.7 43 +20 +20 1020.2 982.7 +22.0
18 16.10 штиль 0 50 км 3/0
[Ci fib]
+13.7 +8.6 71 +13 +13 1021.2 982.9
21 16.10 штиль 0 50 км ясно +8.8 +8.6 99 +8 +8 1022.3 983.3
00 17.10 С 1 н/о н/о +7.5 983.6
03 17.10 штиль 0 10 км местами туман поземный ясно +5.4 +5.4 100 +4 +4 1023.0 983.4 +5.4
06 17.10 В 1 50 км в посл. час туман ясно +10.0 +8.2 89 +9 +12 1022.3 983.4 +4.5
09 17.10 СВ 2 50 км ясно +20.0 +10.7 55 +22 +29 комфорт 1020.4 982.9
12 17.10 СВ 4 50 км ясно +20.3 +9.3 49 +22 +24 комфорт 1019.2 981.9
15 17.10 СВ 3 50 км ясно +17.2 +8.8 58 +17 +17 1019.0 981.1 +22.1
18 17.10 С 2 50 км ясно +12.7 +11.0 89 +12 +12 1019.5 981.1
21 17.10 С 1 20 км местами туман поземный ясно +8.7 +8.7 100 +8 +8 1020.3 981.4

 

Местоположение метеостанции Горный (Краснодарский край, Россия): широта 44.28 долгота 39.27 высота над уровнем моря 323 м.

В архиве по умолчанию представлена погода в Горном за последнюю неделю. Архивные данные за месяц целиком и за предыдущие месяцы, начиная с января 2011 года, Вы можете получить, выбрав интересующий диапазон дат из раскрывающегося списка и нажав кнопку "Ввод!".


*Определитесь, кто Вы:
робот инопланетянин человек

Внимание! Время в таблицах - всемирное. Для получения местного времени необходимо прибавить поправку, которая в Горном равна 3 ч.

Смотрите также архив погоды в соседних городах и на ближайших метеорологических станциях:

Погода в Туапсе (Краснодарский край, Россия) (26 км)
Погода в Магри (Краснодарский край, Россия) (30 км)
Погода в Горячем Ключе (Краснодарский край, Россия) (41 км)
Погода в Лазаревском (Краснодарский край, Россия) (43 км)
Погода в Джубге (Краснодарский край, Россия) (44 км)
Погода в Кичмае (Краснодарский край, Россия) (54 км)
Погода в Солох Ауле (Краснодарский край, Россия) (61 км)
Погода в Шунтуке (Адыгея, Россия) (71 км)
Погода в Белореченске (Краснодарский край, Россия) (72 км)
Погода в Майкопе (Адыгея, Россия) (75 км)

Пояснения к столбцам:

Ветер - указаны скорость ветра в м/с - средняя за 10 мин, порывы в срок и между сроками (в фигурных скобках) и направление, откуда дует ветер: С - северный, СВ - северо-восточный, В - восточный, ЮВ - юго-восточный, Ю - южный, ЮЗ - юго-западный, З - западный, СЗ - северо-западный.
Видимость - горизонтальная дальность видимости в метрах или километрах. При видимости от 1 до 10 км при отсутствии осадков обычно наблюдается дымка, при ухудшении видимости до 1 км и менее - туман. В сухую погоду видимость может ухудшаться дымом, пылью или мглою.
Явления - указаны атмосферные явления, наблюдавшиеся в срок или в последний час перед сроком; фигурными скобками обозначены явления, наблюдавшиеся между сроками (за 1-3 часа до срока); квадратными скобками обозначены град или гололедные отложения с указанием их диаметра в мм.
Облачность - указаны через наклонную черту общая и нижняя облачность в баллах и высота нижней границы облаков в метрах; квадратными скобками обозначены формы облаков: Ci - перистые, Cs - перисто-слоистые, Cc - перисто-кучевые, Ac - высококучевые, As - высокослоистые, Sc - слоисто-кучевые, Ns - слоисто-дождевые, Cu - кучевые, Cb - кучево-дождевые. Подробнее классификацию облаков см. в Атласе облаков (PDF).
T - Температура воздуха - температура, измеренная на высоте 2 м над землей.
Td - Температура точки росы - температура, при понижении до которой содержащийся в воздухе водяной пар достигнет насыщения.
f - Относительная влажность воздуха - влажноcть воздуха, измеренная на высоте 2 м над землей.
Te - Эффективная температура - температура, которую ощущает одетый по сезону человек в тени. Характеристика душности погоды. При расчете учитывается влияние влажности воздуха и скорости ветра на теплоощущения человека.
Tes - Эффективная температура на солнце - температура, которую ощущает человек, с поправкой на солнечный нагрев. Характеристика знойности погоды. Зависит от высоты солнца над горизонтом, облачности и скорости ветра. Ночью, в пасмурную погоду, а также при ветре 12 м/с и более поправка равна нулю.
P - Атмосферное давление - приведенное к уровню моря атмосферное давление.
Po - Атмосферное давление - измеренное на уровне метеостанции атмосферное давление.
Tmin - Минимальная температура - минимум температуры воздуха на высоте 2 м над землей.
Tmax - Максимальная температура - максимум температуры воздуха на высоте 2 м над землей.
R - Количество осадков - Количество выпавших осадков за период времени, мм. При наведении курсора мыши на число - период времени, за который выпало указанное количество осадков.
R24 - Количество осадков - Количество выпавших осадков за 24 часа, мм.
S - Снежный покров - Высота снежного покрова, см. При наведении курсора мыши на число - состояние снежного покрова и степень покрытия местности в баллах.